Temperature
21 21 20 20 20 19 19 19 19 19 18 18 18 17 17 17 17 17 17 17 17 17 16 16 16 16 16 16 15 15 15 15 15 14 14 14 13 13 13 13 13 13 13
21 21 21 20 20 20 19 19 19 19 18 18 18 17 17 17 17 17 16 16 16 16 16 16 16 16 16 15 15 15 15 15 14 14 14 13 13 13 13 13 13 13 12
21 21 21 20 20 20 20 19 19 19 18 18 18 17 17 17 17 16 16 16 16 16 16 16 16 16 15 15 15 15 15 15 14 14 14 13 13 13 13 12 12 12 12
22 21 21 20 20 20 20 20 19 19 19 18 18 17 17 17 17 16 16 16 16 16 16 15 15 15 15 15 15 15 15 14 14 14 13 13 13 12 12 12 12 12 12
22 21 21 21 20 20 20 20 19 19 18 18 18 17 17 17 17 16 16 16 16 15 15 15 15 15 15 14 14 14 14 14 14 13 13 13 12 12 12 12 12 12 12
22 21 21 21 20 20 20 19 19 19 18 18 18 17 17 17 16 16 16 16 15 15 15 15 15 14 14 14 14 14 14 13 13 13 13 12 12 12 12 12 11 11 11
22 21 21 21 20 20 20 19 19 19 18 18 18 17 17 17 16 16 16 15 15 15 15 14 14 14 14 14 13 13 13 13 13 13 13 12 12 12 12 12 11 11 11
21 21 21 20 20 20 20 19 19 18 18 18 17 17 17 16 16 16 16 15 15 15 14 14 14 14 14 13 13 13 13 13 13 13 12 12 12 12 12 12 11 11 11
21 21 21 20 20 20 20 19 19 18 18 17 17 17 16 16 16 15 15 15 15 14 14 14 14 14 13 13 13 13 13 13 13 12 12 12 12 12 11 11 11 11 11
21 20 20 20 20 20 19 19 19 18 17 17 17 16 16 16 15 15 15 15 14 14 14 14 13 13 13 13 13 13 13 13 12 12 12 12 12 11 11 11 11 11 11
20 20 20 19 19 19 19 18 18 17 17 17 16 16 16 15 15 15 15 14 14 14 14 13 13 13 13 13 12 12 12 12 12 12 12 11 11 11 11 11 11 11 11
19 19 19 19 18 18 18 18 17 17 17 16 16 15 15 15 15 14 14 14 14 14 14 13 13 13 13 12 12 12 12 12 12 11 11 11 11 11 11 11 11 10 10
19 19 18 18 18 18 17 17 17 16 16 16 16 15 15 15 14 14 14 14 13 13 13 13 13 12 12 12 12 12 12 12 11 11 11 11 11 11 11 11 10 10 10
18 18 18 17 17 17 17 17 16 16 16 16 15 15 15 15 14 14 13 13 13 13 12 12 12 12 12 12 12 12 11 11 11 11 11 11 11 11 11 10 10 10 10
18 18 17 17 17 16 16 16 16 16 15 15 15 15 15 14 14 14 13 13 13 13 12 12 12 12 12 12 12 11 11 11 11 11 11 11 11 10 10 10 10 10 10
17 17 17 17 16 16 16 15 15 15 15 14 14 14 14 14 13 13 13 13 12 12 12 12 12 12 12 11 11 11 11 11 11 11 11 11 10 10 10 10 10 10 10
17 16 16 16 16 16 15 15 15 14 14 14 14 14 13 13 13 13 12 12 12 12 12 12 11 11 11 11 11 11 11 11 11 11 10 10 10 10 10 10 10 9 9
16 16 16 15 15 15 15 15 14 14 14 13 13 13 13 13 12 12 12 12 11 11 11 11 11 11 11 11 11 11 11 11 10 10 10 10 10 10 9 9 9 9 9
15 15 15 15 15 14 14 14 14 13 13 13 13 13 12 12 12 12 11 11 11 11 11 11 11 11 11 11 11 10 10 10 10 10 10 10 9 9 9 9 9 9 9
15 15 15 14 14 14 14 13 13 13 13 13 13 13 12 12 12 12 11 11 11 11 11 11 11 11 10 10 10 10 10 10 10 9 9 9 9 9 9 9 9 9 9
14 14 14 14 14 14 13 13 13 13 13 13 13 12 12 12 12 12 11 11 11 11 11 11 10 10 10 10 10 10 10 10 9 9 9 9 9 9 9 9 8 8 8
14 14 14 14 13 13 13 13 13 13 13 12 12 12 12 12 11 11 11 11 11 11 11 10 10 10 10 10 10 9 9 9 9 9 9 9 9 9 9 8 8 8 8
14 14 13 13 13 13 13 13 12 12 12 12 12 12 12 12 11 11 11 11 11 11 10 10 10 10 9 9 9 9 9 9 9 9 9 9 8 8 8 8 8 8 8
13 13 13 13 13 13 13 12 12 12 12 12 12 11 11 11 11 11 11 11 11 10 10 10 10 10 9 9 9 9 9 9 8 8 8 8 8 8 8 8 8 7 7
13 13 13 13 13 13 12 12 12 12 12 12 11 11 11 11 11 11 11 11 10 10 10 10 10 9 9 9 9 8 8 8 8 8 8 8 8 8 8 7 7 7 7
13 13 13 12 12 12 12 12 12 12 12 11 11 11 11 11 11 11 11 10 10 10 10 10 9 9 9 9 9 8 8 8 8 8 8 8 7 7 7 7 7 7 7
Wind_Speed
9 7 6 5 5 5 5 4 4 3 3 3 3 3 3 2 2 2 2 1 1 1 1 1 1 1 1 1 2 2 2 3 3 1 0 1 2 2 3 3 4 4 4
8 8 7 6 6 6 5 4 4 4 3 3 3 3 3 2 2 3 2 2 2 1 1 1 0 1 1 1 2 3 2 3 4 3 1 1 1 3 3 2 2 3 3
9 8 7 6 6 6 6 5 5 4 3 3 3 3 3 3 3 2 2 2 2 2 1 1 1 1 1 1 2 3 2 3 3 4 3 1 1 2 1 1 2 1 2
9 9 8 8 8 7 6 5 5 5 4 4 3 3 3 2 2 2 2 2 2 1 1 1 1 2 2 2 2 2 3 3 4 4 3 2 1 1 2 1 1 1 1
10 10 10 8 8 7 6 5 5 5 5 4 4 2 2 2 2 2 2 2 2 1 1 1 1 2 2 3 3 3 4 3 4 4 3 2 2 2 2 2 2 1 1
10 9 8 8 8 7 7 6 5 5 4 4 4 3 2 1 2 3 3 2 2 2 2 1 1 1 1 2 5 5 6 6 5 4 3 3 3 3 2 3 2 2 2
9 9 9 9 8 8 8 7 6 5 5 4 4 4 3 2 3 4 4 3 2 2 2 1 1 0 1 1 3 3 3 5 7 6 5 4 4 5 4 4 4 3 3
8 8 9 9 8 8 7 7 6 5 5 5 5 4 3 2 4 4 3 3 2 2 2 3 2 1 1 2 3 2 1 1 3 4 5 5 5 5 6 5 5 3 1
7 7 8 9 9 8 8 8 6 6 5 5 5 5 4 2 3 4 4 2 2 2 1 2 3 2 2 4 4 3 1 1 1 3 5 6 7 8 7 3 2 2 1
7 7 6 7 8 9 8 7 5 6 6 5 4 4 4 3 3 4 4 3 2 1 1 1 2 3 3 5 4 3 2 2 1 0 0 1 2 4 7 6 6 4 2
6 6 6 6 7 7 6 5 5 5 5 5 4 4 4 4 4 4 4 3 4 3 2 2 2 4 4 4 4 3 4 3 2 1 1 1 1 2 3 5 5 5 4
5 5 5 5 6 6 6 5 5 6 6 5 4 3 2 3 4 5 5 5 5 4 4 3 3 5 4 4 3 3 3 2 1 1 1 1 2 3 3 4 5 6 6
5 5 4 4 4 4 5 5 5 5 5 5 4 4 3 2 3 5 5 5 5 4 3 5 5 5 3 2 3 4 3 2 2 2 3 3 4 4 2 2 2 2 2
5 5 5 5 4 3 4 4 4 4 4 4 4 4 3 3 3 3 3 3 3 3 2 2 4 4 2 2 2 2 2 3 4 4 4 3 2 1 2 2 2 1 1
6 5 5 4 4 4 3 2 3 3 5 6 5 5 5 4 5 6 5 4 4 4 3 1 1 0 1 1 2 2 2 2 3 3 3 2 2 2 2 2 2 2 2
5 5 4 4 4 4 3 2 3 1 2 5 6 5 4 5 6 8 7 7 6 6 4 2 3 3 4 4 4 3 3 4 4 3 3 4 4 4 3 2 2 3 3
6 5 4 4 5 5 4 4 2 2 3 1 3 6 6 7 8 8 8 7 5 6 3 3 4 5 4 4 4 4 5 4 4 4 4 4 4 4 3 3 3 3 4
5 5 5 5 5 5 5 4 4 4 1 1 1 3 6 8 8 8 7 5 2 3 3 4 4 4 4 4 4 4 4 3 3 4 4 4 4 4 4 4 4 4 5
5 4 5 5 4 4 4 4 3 4 3 2 1 0 3 4 4 5 6 3 4 4 5 5 5 4 4 4 4 4 4 4 3 3 4 4 5 4 4 4 4 6 5
4 5 5 5 4 4 4 4 4 4 4 4 4 3 3 3 2 3 4 4 5 5 5 5 5 5 5 5 4 4 4 4 4 4 4 4 4 5 5 5 5 4 5
3 4 5 4 4 4 4 5 5 5 4 4 4 5 8 5 5 5 5 6 6 6 6 5 5 5 5 4 4 5 5 5 5 5 5 5 5 5 5 5 5 5 5
3 3 3 3 3 4 4 5 5 5 5 5 3 4 8 5 4 5 5 6 6 6 6 6 6 6 5 5 5 4 5 5 5 5 5 5 5 5 5 4 4 4 4
3 3 2 2 3 3 3 3 4 4 4 4 4 4 4 5 5 5 6 6 6 5 5 5 5 5 5 4 5 5 5 6 6 6 5 5 4 4 4 5 5 5 4
3 3 3 3 3 3 3 3 3 4 4 4 4 4 5 5 6 6 6 5 5 5 5 5 6 7 7 5 5 6 6 7 7 6 6 5 5 4 4 4 4 4 5
3 3 3 3 3 3 3 3 3 3 3 4 4 4 4 5 5 6 5 5 5 5 5 5 5 5 7 7 6 6 7 7 6 6 5 4 5 5 4 4 3 3 4
3 3 2 2 2 3 3 3 3 3 3 3 3 4 4 4 4 5 5 5 4 4 4 5 6 7 7 7 8 7 7 7 7 6 5 4 4 4 4 4 4 4 4
Wind_Direction
177 175 167 166 161 153 155 161 159 153 153 159 161 152 146 141 133 130 136 126 118 87 96 129 164 166 163 167 156 154 152 143 154 182 114 141 126 131 125 120 124 123 124
177 169 168 165 161 160 163 168 157 150 153 156 145 136 138 134 131 137 150 135 135 133 122 106 225 137 141 165 160 163 166 157 152 164 159 154 156 163 158 153 144 143 139
169 167 168 169 168 169 169 167 160 155 148 141 139 140 140 133 135 146 151 149 148 153 140 132 157 128 143 159 153 157 161 146 138 154 167 167 140 157 141 160 149 140 157
168 167 173 178 177 174 169 164 161 157 149 139 136 140 143 143 148 158 156 152 150 149 157 143 134 149 171 164 144 142 137 130 133 147 153 157 160 164 142 152 170 229 204
171 175 184 184 176 169 167 168 163 158 156 149 141 136 137 150 166 167 171 165 161 163 146 134 138 147 170 172 159 153 144 143 145 150 161 161 168 165 189 192 192 195 249
176 183 181 177 174 175 175 171 162 158 157 151 154 154 155 168 154 147 146 141 151 154 151 148 112 74 127 171 161 153 155 159 165 168 183 189 202 198 185 179 170 155 238
177 179 178 176 179 182 181 173 171 172 167 165 166 160 165 178 156 149 147 141 146 154 153 155 148 56 78 125 146 145 164 171 169 172 183 202 202 199 181 186 192 192 215
174 178 180 178 181 179 176 180 181 175 175 181 182 178 174 188 167 158 152 140 144 150 157 163 155 162 138 136 133 119 138 213 201 189 196 210 208 198 189 192 198 197 220
179 189 186 181 179 178 182 186 183 177 184 186 182 176 177 192 178 169 150 135 136 139 154 157 160 165 179 149 131 128 103 327 279 196 200 201 199 192 179 153 150 152 209
190 192 182 178 178 182 184 183 182 178 183 179 180 182 180 188 191 173 155 145 154 171 177 183 180 172 167 156 151 152 173 240 249 116 191 203 194 199 190 181 178 177 186
187 174 171 182 183 182 179 178 175 174 171 173 176 186 184 188 190 185 172 162 176 182 193 217 232 189 174 173 171 183 207 205 194 186 210 266 272 240 224 208 194 182 185
163 165 172 181 180 177 172 174 173 171 172 178 179 188 202 197 189 194 188 183 182 179 198 213 222 205 200 196 199 211 198 154 135 137 179 247 241 245 240 223 214 211 208
159 168 171 171 168 165 170 176 177 177 179 185 182 188 198 192 202 201 197 200 192 190 203 201 208 212 217 231 227 215 185 161 164 194 227 240 238 235 224 213 211 217 237
163 168 169 167 167 162 166 172 177 181 184 187 188 192 195 194 199 206 207 201 194 196 216 228 221 222 230 249 246 229 205 196 196 217 230 244 253 227 212 202 203 202 207
169 169 169 168 162 156 155 163 177 192 196 189 194 190 188 208 220 198 188 192 192 195 168 133 120 198 242 256 256 256 238 214 214 222 224 227 225 221 229 213 194 181 195
168 172 172 171 159 156 146 97 46 107 176 182 185 181 200 204 186 181 185 189 189 174 155 176 209 220 226 233 235 242 237 226 225 217 216 217 217 217 225 222 201 197 214
170 174 172 170 166 165 168 170 165 20 38 120 193 191 189 182 176 176 181 184 180 162 175 206 215 222 227 231 232 230 233 231 217 210 217 219 217 217 213 217 216 219 227
168 174 173 181 181 180 182 185 180 173 174 332 319 206 188 183 181 181 173 149 154 182 210 216 222 225 225 228 232 234 236 232 221 222 222 220 216 214 218 219 216 217 224
169 176 178 183 183 180 181 182 180 179 177 178 149 258 195 182 183 186 165 175 199 214 222 224 224 225 228 227 226 223 224 224 227 225 226 219 213 212 222 223 223 227 222
174 181 178 180 183 183 185 186 187 186 189 192 195 196 169 147 189 209 208 218 221 226 225 226 229 232 232 228 222 218 220 227 232 229 230 227 219 213 218 223 223 224 226
176 177 180 183 190 193 191 190 190 192 199 209 215 201 180 189 207 215 218 222 226 228 228 229 231 234 233 229 222 220 221 227 226 227 230 228 224 222 222 220 222 224 228
173 174 178 186 187 188 190 190 193 195 196 199 210 205 194 200 212 219 222 225 228 230 228 224 229 231 228 222 217 216 223 229 231 230 231 231 229 226 220 220 224 224 225
163 161 161 171 173 170 181 187 187 190 195 203 204 203 204 215 222 226 229 230 230 232 233 227 230 235 231 221 212 211 219 228 229 219 218 224 226 226 221 218 219 221 225
157 161 164 168 167 172 183 192 191 195 201 205 206 208 213 216 221 227 231 233 233 235 231 224 221 216 210 212 216 218 223 229 224 218 210 213 218 223 220 222 225 224 223
161 164 170 177 182 190 195 200 203 207 214 217 215 216 222 224 226 231 233 233 231 231 225 216 208 205 205 211 218 222 223 223 222 218 209 207 213 212 210 216 224 235 233
166 171 176 177 183 191 197 204 213 218 222 224 220 220 221 227 234 235 232 228 226 225 223 217 210 207 209 213 217 215 214 218 222 220 215 211 212 214 210 217 226 230 235
Height
1537 1538 1539 1540 1541 1541 1542 1542 1542 1542 1542 1541 1541 1540 1539 1539 1539 1539 1539 1539 1539 1539 1539 1538 1538 1538 1538 1539 1539 1540 1540 1540 1540 1540 1541 1542 1542 1542 1542 1542 1542 1541 1540
1536 1537 1538 1539 1540 1540 1540 1541 1541 1541 1541 1541 1540 1539 1539 1538 1538 1538 1538 1538 1538 1537 1537 1537 1536 1536 1536 1536 1537 1537 1537 1538 1538 1538 1539 1540 1540 1541 1541 1541 1541 1540 1540
1534 1536 1537 1538 1538 1539 1539 1540 1540 1540 1540 1539 1539 1539 1538 1538 1537 1537 1537 1537 1536 1536 1536 1535 1535 1534 1534 1534 1534 1534 1535 1536 1536 1536 1537 1538 1538 1539 1539 1539 1539 1539 1539
1532 1533 1535 1536 1537 1538 1538 1538 1538 1538 1538 1538 1537 1537 1537 1537 1536 1536 1536 1535 1535 1534 1534 1533 1533 1533 1533 1533 1533 1532 1533 1533 1533 1534 1535 1536 1536 1537 1537 1537 1537 1538 1537
1530 1531 1532 1534 1535 1536 1536 1536 1536 1536 1536 1536 1536 1536 1536 1535 1535 1535 1534 1534 1533 1533 1532 1532 1532 1532 1531 1531 1531 1531 1531 1531 1531 1532 1532 1533 1534 1534 1534 1535 1535 1536 1536
1527 1528 1530 1532 1533 1533 1534 1534 1534 1534 1534 1534 1534 1534 1534 1534 1533 1533 1533 1532 1532 1531 1531 1531 1531 1531 1530 1530 1530 1530 1530 1530 1530 1530 1530 1531 1531 1532 1533 1533 1534 1534 1533
1523 1525 1527 1528 1529 1530 1531 1532 1532 1532 1532 1532 1532 1532 1532 1532 1531 1531 1531 1531 1530 1529 1529 1529 1529 1529 1529 1529 1529 1528 1528 1529 1529 1529 1529 1529 1529 1530 1531 1531 1531 1531 1531
1520 1521 1523 1525 1526 1527 1528 1528 1529 1529 1529 1529 1529 1529 1529 1529 1529 1529 1529 1529 1529 1528 1528 1527 1527 1527 1527 1527 1527 1527 1527 1527 1527 1527 1527 1527 1528 1528 1529 1529 1529 1530 1530
1517 1518 1519 1521 1522 1523 1524 1525 1525 1526 1526 1526 1526 1526 1526 1526 1527 1527 1527 1527 1527 1526 1526 1526 1525 1525 1525 1525 1526 1525 1525 1525 1525 1525 1525 1526 1526 1526 1527 1527 1527 1527 1527
1513 1514 1516 1517 1518 1519 1520 1521 1522 1522 1523 1523 1523 1523 1523 1524 1524 1524 1525 1525 1524 1524 1524 1524 1523 1523 1523 1524 1524 1523 1523 1523 1523 1523 1523 1523 1523 1523 1523 1524 1524 1525 1525
1511 1512 1512 1514 1515 1515 1516 1518 1518 1519 1519 1519 1519 1520 1520 1520 1521 1521 1522 1522 1522 1521 1521 1521 1521 1521 1521 1521 1522 1522 1522 1522 1521 1521 1521 1520 1520 1520 1520 1521 1521 1522 1522
1507 1508 1509 1510 1511 1512 1513 1513 1514 1515 1515 1515 1515 1516 1517 1517 1517 1518 1519 1519 1519 1519 1519 1519 1519 1519 1519 1519 1519 1520 1520 1520 1520 1519 1519 1518 1518 1518 1518 1519 1519 1520 1520
1503 1505 1506 1506 1507 1508 1509 1510 1511 1511 1511 1511 1512 1512 1513 1514 1514 1515 1515 1516 1516 1516 1516 1517 1517 1517 1517 1517 1517 1517 1518 1517 1517 1517 1517 1516 1516 1516 1516 1517 1517 1517 1518
1500 1501 1502 1503 1504 1504 1505 1506 1506 1507 1507 1508 1508 1508 1509 1510 1510 1511 1512 1512 1513 1514 1514 1514 1515 1515 1515 1514 1514 1515 1515 1515 1515 1515 1514 1515 1514 1514 1514 1514 1514 1514 1515
1496 1497 1498 1499 1500 1500 1501 1502 1503 1504 1505 1505 1505 1506 1506 1506 1507 1509 1509 1509 1510 1511 1511 1511 1511 1512 1511 1511 1511 1512 1512 1511 1511 1511 1512 1512 1512 1512 1512 1512 1512 1512 1512
1492 1493 1494 1495 1495 1496 1497 1498 1499 1500 1501 1502 1502 1503 1503 1505 1505 1505 1506 1507 1507 1507 1507 1507 1507 1508 1508 1508 1508 1508 1508 1508 1508 1508 1508 1508 1508 1508 1508 1509 1509 1509 1508
1489 1490 1491 1491 1492 1492 1493 1494 1495 1496 1497 1498 1498 1499 1500 1501 1502 1502 1503 1503 1503 1503 1503 1503 1503 1504 1504 1504 1504 1504 1504 1504 1504 1504 1504 1504 1504 1504 1505 1505 1505 1505 1505
1486 1487 1488 1488 1489 1489 1490 1491 1492 1492 1493 1494 1495 1496 1497 1498 1499 1499 1499 1499 1499 1499 1499 1499 1499 1500 1500 1500 1500 1500 1500 1500 1500 1500 1500 1500 1500 1500 1500 1500 1500 1500 1501
1483 1483 1484 1485 1486 1487 1488 1489 1489 1490 1490 1491 1492 1493 1494 1495 1495 1496 1495 1495 1495 1495 1495 1495 1495 1496 1496 1496 1496 1496 1496 1496 1495 1495 1495 1495 1495 1495 1495 1495 1496 1496 1496
1479 1480 1482 1483 1483 1484 1485 1486 1486 1487 1488 1488 1488 1489 1490 1491 1491 1492 1492 1491 1491 1491 1491 1491 1491 1492 1492 1492 1492 1492 1491 1491 1491 1490 1490 1490 1490 1491 1491 1491 1491 1491 1491
1476 1478 1479 1480 1480 1481 1482 1483 1484 1484 1485 1486 1486 1486 1487 1488 1488 1488 1488 1487 1487 1487 1487 1487 1487 1487 1487 1487 1487 1486 1486 1486 1486 1486 1486 1485 1485 1485 1485 1486 1486 1486 1486
1474 1475 1476 1477 1478 1479 1479 1480 1481 1481 1482 1483 1483 1484 1484 1484 1484 1484 1484 1484 1483 1483 1483 1482 1482 1482 1482 1482 1481 1481 1481 1481 1481 1481 1480 1480 1480 1480 1480 1480 1481 1481 1481
1472 1473 1473 1474 1475 1476 1477 1477 1478 1478 1479 1479 1480 1480 1481 1480 1480 1480 1480 1479 1479 1478 1478 1478 1477 1476 1476 1476 1476 1476 1476 1475 1475 1475 1475 1475 1475 1475 1474 1474 1475 1475 1475
1471 1471 1472 1473 1474 1474 1474 1475 1475 1476 1476 1476 1477 1477 1477 1477 1476 1476 1475 1475 1474 1474 1473 1473 1472 1471 1471 1471 1471 1470 1470 1470 1470 1470 1470 1470 1469 1469 1469 1469 1470 1470 1470
1469 1470 1471 1471 1472 1472 1473 1473 1473 1473 1473 1473 1473 1473 1473 1473 1473 1472 1471 1470 1470 1469 1468 1468 1467 1466 1466 1466 1465 1465 1465 1465 1465 1465 1465 1464 1464 1464 1464 1465 1465 1465 1465
1468 1468 1469 1470 1470 1470 1470 1470 1470 1470 1470 1470 1470 1470 1469 1469 1469 1468 1467 1466 1465 1464 1463 1463 1462 1461 1461 1460 1460 1460 1459 1459 1459 1459 1459 1459 1459 1459 1459 1459 1459 1460 1459